Location: Peterborough
(44.3091°N, 78.3197°W)
Time: 19:10:36
(UTC-04:00)

Courier 1B Rocket - Pass Details

Date: 26 March 2023
Orbit: 920 x 1202 km, 28.2° (Epoch: 04 June)

Event Time Altitude Azimuth Distance (km) Brightness Sun altitude
Rises 20:03:35 0° 213° (SSW) 3,903 8.5 -6.3°
Reaches altitude 10° 20:08:16 10° 187° (S) 2,877 7.4 -7.1°
Maximum altitude 20:11:06 13° 163° (SSE) 2,632 7.0 -7.6°
Drops below altitude 10° 20:13:53 10° 138° (SE) 2,793 6.9 -8.1°
Enters shadow 20:15:31 - 126° (SE) 3,053 7.0 -8.4°
